STARLINK-34324, 64207

Orbit data source: Space-Track

STARLINK-34324, 64207 is a payload satellite owned by SpaceX/Seattle (US) in LEO that was launched on Sat, 31 May 2025 UTC via an FALCON 9 launch vehicle from the Air Force Western Test Range (AFWTR). Payload-class satellites include a variety of spacecraft equipped with specific instruments for various scientific and technological missions. These include communications satellites like Starlink; space stations such as the ISS; scientific satellites like the Hubble; Earth observation satellites from companies like Planet Labs, Umbra, and HawkEye 360; GPS; miniature CubeSats for education and research; and military/defense satellites.

Loading next visibility...
Identifier
64207, 2025-117E
Orbit
LEO
Country
Flag of USUS
Related business
Manufacturer
SpaceX/Seattle
Mission
Operational Commercial Communications
Bus & Motor
STARLINK V2MO, Unknown motor
Mass
575 kg wet, ~530 kg dry
Launch date (UTC)
2025-05-31 (1 year ago)
Launch vehicle
FALCON 9
Launch site
Air Force Western Test Range (AFWTR)
Object type
Payload
Rocket body
Debris
Shape & HBR
Box + 1 Pan, 17.7 m
Radar Cross Section
41.120 m², Large (>1 m²)

Expand to show TLE details & history
Last TLE update: 1 day ago

TLE from 1 day ago
0 STARLINK-34324
1 64207U 25117E   26235.32901546  .00022126  00000-0  66429-3 0  9996
2 64207  53.1607 345.2487 0001137  79.1580 280.9551 15.34389281 69018
Epoch: 2026-08-23T07:53Z
TLE epoch observation values (Epoch: 2026-08-23T07:53:46.935Z)
Latitude
Longitude
-104.8235°
Altitude
463.489 km
Speed
7.636 km/s
True Right ascension
23h 00m 59s
True Declination
0° 00' 00"
Sunlit
Object was in full shadow at epoch
Visualization orbit readout
Latitude
Unknown
Longitude
Unknown
Altitude
Unknown
Speed
Unknown
Apparent Right ascension
Unknown
Apparent Declination
Unknown
Sunlit
N/A
Visualization observer readout
Local Sidereal Time
23:03:51
Azimuth
Unknown
Elevation
Unknown
Doppler factor
Unknown
Orbital elements
Apogee altitude
463.77 km
Perigee altitude
462.214 km
Semi-major axis
6,841.129 km
Eccentricity
0.00011
Inclination
53.1607°
RAAN
345.2487°
Arg. of periapsis
79.158°
True anomaly
280.94231°
Mean anomaly
280.9551°
Eccentric anomaly
280.9487°
Mean motion
3.83576 °/min
Orbital period
93.85 mins
BSTAR
0.00066429
Loading maneuver chart data...
Computing Atmospheric mass density...
Loading historical data...
Loading historical data...
Loading historical data...
Loading historical data...
Loading historical data...
Loading historical data...
Loading historical data...

Documentation

Showing up to 5 results
|